Year,Month,Day,Hour,Minute,Value (Times are PST for temperature in C)
2016,04,20,00,00,13.70
2016,04,20,00,01,13.70
2016,04,20,00,02,13.70
2016,04,20,00,03,13.70
2016,04,20,00,04,13.70
2016,04,20,00,05,13.70
2016,04,20,00,06,13.70
2016,04,20,00,07,13.70
2016,04,20,00,08,13.70
2016,04,20,00,09,13.70
2016,04,20,00,10,13.70
2016,04,20,00,11,13.70
2016,04,20,00,12,13.70
2016,04,20,00,13,13.70
2016,04,20,00,14,13.70
2016,04,20,00,15,13.70
2016,04,20,00,16,13.60
2016,04,20,00,17,13.60
2016,04,20,00,18,13.60
2016,04,20,00,19,13.60
2016,04,20,00,20,13.60
2016,04,20,00,21,13.50
2016,04,20,00,22,13.50
2016,04,20,00,23,13.40
2016,04,20,00,24,13.40
2016,04,20,00,25,13.40
2016,04,20,00,26,13.40
2016,04,20,00,27,13.40
2016,04,20,00,28,13.40
2016,04,20,00,29,13.40
2016,04,20,00,30,13.30
2016,04,20,00,31,13.30
2016,04,20,00,32,13.30
2016,04,20,00,33,13.40
2016,04,20,00,34,13.40
2016,04,20,00,35,13.40
2016,04,20,00,36,13.40
2016,04,20,00,37,13.40
2016,04,20,00,38,13.40
2016,04,20,00,39,13.50
2016,04,20,00,40,13.50
2016,04,20,00,41,13.50
2016,04,20,00,42,13.60
2016,04,20,00,43,13.60
2016,04,20,00,44,13.60
2016,04,20,00,45,13.60
2016,04,20,00,46,13.60
2016,04,20,00,47,13.60
2016,04,20,00,48,13.60
2016,04,20,00,49,13.60
2016,04,20,00,50,13.60
2016,04,20,00,51,13.70
2016,04,20,00,52,13.70
2016,04,20,00,53,13.80
2016,04,20,00,54,13.80
2016,04,20,00,55,13.80
2016,04,20,00,56,13.80
2016,04,20,00,57,13.90
2016,04,20,00,58,13.90
2016,04,20,00,59,13.90
2016,04,20,01,00,13.80
2016,04,20,01,01,13.80
2016,04,20,01,02,13.80
2016,04,20,01,03,13.80
2016,04,20,01,04,13.80
2016,04,20,01,05,13.80
2016,04,20,01,06,13.80
2016,04,20,01,07,13.90
2016,04,20,01,08,13.90
2016,04,20,01,09,13.90
2016,04,20,01,10,13.90
2016,04,20,01,11,13.90
2016,04,20,01,12,13.90
2016,04,20,01,13,13.90
2016,04,20,01,14,13.90
2016,04,20,01,15,14.00
2016,04,20,01,16,14.00
2016,04,20,01,17,14.00
2016,04,20,01,18,14.00
2016,04,20,01,19,14.10
2016,04,20,01,20,14.10
2016,04,20,01,21,14.10
2016,04,20,01,22,14.10
2016,04,20,01,23,14.20
2016,04,20,01,24,14.20
2016,04,20,01,25,14.20
2016,04,20,01,26,14.20
2016,04,20,01,27,14.30
2016,04,20,01,28,14.30
2016,04,20,01,29,14.30
2016,04,20,01,30,14.40
2016,04,20,01,31,14.40
2016,04,20,01,32,14.50
2016,04,20,01,33,14.50
2016,04,20,01,34,14.60
2016,04,20,01,35,14.60
2016,04,20,01,36,14.60
2016,04,20,01,37,14.60
2016,04,20,01,38,14.70
2016,04,20,01,39,14.70
2016,04,20,01,40,14.70
2016,04,20,01,41,14.80
2016,04,20,01,42,14.80
2016,04,20,01,43,14.80
2016,04,20,01,44,14.80
2016,04,20,01,45,14.80
2016,04,20,01,46,14.80
2016,04,20,01,47,14.80
2016,04,20,01,48,14.80
2016,04,20,01,49,14.80
2016,04,20,01,50,14.80
2016,04,20,01,51,14.90
2016,04,20,01,52,14.90
2016,04,20,01,53,14.90
2016,04,20,01,54,14.90
2016,04,20,01,55,14.90
2016,04,20,01,56,14.90
2016,04,20,01,57,14.90
2016,04,20,01,58,14.90
2016,04,20,01,59,14.90
2016,04,20,02,00,14.80
2016,04,20,02,01,14.80
2016,04,20,02,02,14.80
2016,04,20,02,03,14.80
2016,04,20,02,04,14.80
2016,04,20,02,05,14.80
2016,04,20,02,06,14.80
2016,04,20,02,07,14.70
2016,04,20,02,08,14.70
2016,04,20,02,09,14.70
2016,04,20,02,10,14.70
2016,04,20,02,11,14.70
2016,04,20,02,12,14.60
2016,04,20,02,13,14.60
2016,04,20,02,14,14.50
2016,04,20,02,15,14.50
2016,04,20,02,16,14.40
2016,04,20,02,17,14.40
2016,04,20,02,18,14.40
2016,04,20,02,19,14.30
2016,04,20,02,20,14.30
2016,04,20,02,21,14.30
2016,04,20,02,22,14.20
2016,04,20,02,23,14.20
2016,04,20,02,24,14.10
2016,04,20,02,25,14.10
2016,04,20,02,26,14.10
2016,04,20,02,27,14.00
2016,04,20,02,28,14.00
2016,04,20,02,29,13.90
2016,04,20,02,30,13.90
2016,04,20,02,31,13.90
2016,04,20,02,32,13.80
2016,04,20,02,33,13.80
2016,04,20,02,34,13.80
2016,04,20,02,35,13.70
2016,04,20,02,36,13.70
2016,04,20,02,37,13.70
2016,04,20,02,38,13.70
2016,04,20,02,39,13.60
2016,04,20,02,40,13.60
2016,04,20,02,41,13.60
2016,04,20,02,42,13.50
2016,04,20,02,43,13.50
2016,04,20,02,44,13.40
2016,04,20,02,45,13.40
2016,04,20,02,46,13.40
2016,04,20,02,47,13.40
2016,04,20,02,48,13.30
2016,04,20,02,49,13.30
2016,04,20,02,50,13.30
2016,04,20,02,51,13.30
2016,04,20,02,52,13.30
2016,04,20,02,53,13.30
2016,04,20,02,54,13.20
2016,04,20,02,55,13.20
2016,04,20,02,56,13.20
2016,04,20,02,57,13.20
2016,04,20,02,58,13.20
2016,04,20,02,59,13.20
2016,04,20,03,00,13.10
2016,04,20,03,01,13.10
2016,04,20,03,02,13.10
2016,04,20,03,06,13.00
2016,04,20,03,07,13.00
2016,04,20,03,08,13.00
2016,04,20,03,09,13.00
2016,04,20,03,10,12.90
2016,04,20,03,11,12.90
2016,04,20,03,12,12.90
2016,04,20,03,13,12.90
2016,04,20,03,14,12.90
2016,04,20,03,15,13.00
2016,04,20,03,16,13.00
2016,04,20,03,17,13.00
2016,04,20,03,18,13.00
2016,04,20,03,19,13.00
2016,04,20,03,20,13.00
2016,04,20,03,21,13.00
2016,04,20,03,22,13.00
2016,04,20,03,23,13.10
2016,04,20,03,24,13.10
2016,04,20,03,25,13.10
2016,04,20,03,26,13.10
2016,04,20,03,27,13.10
2016,04,20,03,28,13.10
2016,04,20,03,29,13.10
2016,04,20,03,30,13.10
2016,04,20,03,31,13.10
2016,04,20,03,32,13.20
2016,04,20,03,33,13.20
2016,04,20,03,34,13.30
2016,04,20,03,35,13.30
2016,04,20,03,36,13.40
2016,04,20,03,37,13.50
2016,04,20,03,38,13.50
2016,04,20,03,39,13.60
2016,04,20,03,40,13.60
2016,04,20,03,41,13.70
2016,04,20,03,42,13.70
2016,04,20,03,43,13.80
2016,04,20,03,44,13.80
2016,04,20,03,45,13.80
2016,04,20,03,46,13.90
2016,04,20,03,47,13.90
2016,04,20,03,48,13.80
2016,04,20,03,49,13.80
2016,04,20,03,50,13.80
2016,04,20,03,51,13.80
2016,04,20,03,52,13.80
2016,04,20,03,53,13.80
2016,04,20,03,54,13.80
2016,04,20,03,55,13.80
2016,04,20,03,56,13.80
2016,04,20,03,57,13.80
2016,04,20,03,58,13.80
2016,04,20,03,59,13.80
2016,04,20,04,00,13.80
2016,04,20,04,01,13.80
2016,04,20,04,02,13.80
2016,04,20,04,03,13.80
2016,04,20,04,04,13.80
2016,04,20,04,05,13.80
2016,04,20,04,06,13.90
2016,04,20,04,07,14.00
2016,04,20,04,08,14.00
2016,04,20,04,09,14.00
2016,04,20,04,10,14.10
2016,04,20,04,11,14.20
2016,04,20,04,12,14.20
2016,04,20,04,13,14.20
2016,04,20,04,14,14.20
2016,04,20,04,15,14.20
2016,04,20,04,16,14.20
2016,04,20,04,17,14.10
2016,04,20,04,18,14.10
2016,04,20,04,19,14.00
2016,04,20,04,20,14.00
2016,04,20,04,21,13.90
2016,04,20,04,22,13.80
2016,04,20,04,23,13.80
2016,04,20,04,24,13.70
2016,04,20,04,25,13.70
2016,04,20,04,26,13.60
2016,04,20,04,27,13.60
2016,04,20,04,28,13.60
2016,04,20,04,29,13.50
2016,04,20,04,30,13.50
2016,04,20,04,31,13.40
2016,04,20,04,32,13.40
2016,04,20,04,33,13.40
2016,04,20,04,34,13.30
2016,04,20,04,35,13.30
2016,04,20,04,36,13.30
2016,04,20,04,37,13.30
2016,04,20,04,38,13.30
2016,04,20,04,39,13.20
2016,04,20,04,40,13.20
2016,04,20,04,41,13.20
2016,04,20,04,42,13.10
2016,04,20,04,43,13.10
2016,04,20,04,44,13.00
2016,04,20,04,45,13.00
2016,04,20,04,46,12.90
2016,04,20,04,47,12.90
2016,04,20,04,48,12.90
2016,04,20,04,49,12.80
2016,04,20,04,50,12.80
2016,04,20,04,51,12.80
2016,04,20,04,52,12.80
2016,04,20,04,53,12.80
2016,04,20,04,54,12.80
2016,04,20,04,55,12.80
2016,04,20,04,56,12.80
2016,04,20,04,57,12.70
2016,04,20,04,58,12.70
2016,04,20,04,59,12.70
2016,04,20,05,00,12.70
2016,04,20,05,01,12.70
2016,04,20,05,02,12.60
2016,04,20,05,03,12.60
2016,04,20,05,04,12.60
2016,04,20,05,05,12.60
2016,04,20,05,06,12.50
2016,04,20,05,07,12.50
2016,04,20,05,08,12.50
2016,04,20,05,09,12.40
2016,04,20,05,10,12.40
2016,04,20,05,11,12.40
2016,04,20,05,12,12.40
2016,04,20,05,13,12.40
2016,04,20,05,14,12.40
2016,04,20,05,15,12.40
2016,04,20,05,16,12.40
2016,04,20,05,17,12.40
2016,04,20,05,18,12.30
2016,04,20,05,19,12.30
2016,04,20,05,20,12.30
2016,04,20,05,21,12.30
2016,04,20,05,22,12.40
2016,04,20,05,23,12.40
2016,04,20,05,24,12.40
2016,04,20,05,25,12.40
2016,04,20,05,26,12.40
2016,04,20,05,27,12.40
2016,04,20,05,28,12.30
2016,04,20,05,29,12.30
2016,04,20,05,30,12.30
2016,04,20,05,31,12.40
2016,04,20,05,32,12.40
2016,04,20,05,33,12.40
2016,04,20,05,34,12.40
2016,04,20,05,35,12.40
2016,04,20,05,36,12.40
2016,04,20,05,37,12.40
2016,04,20,05,38,12.40
2016,04,20,05,39,12.50
2016,04,20,05,40,12.50
2016,04,20,05,41,12.50
2016,04,20,05,42,12.50
2016,04,20,05,43,12.60
2016,04,20,05,44,12.50
2016,04,20,05,45,12.50
2016,04,20,05,46,12.50
2016,04,20,05,47,12.50
2016,04,20,05,48,12.60
2016,04,20,05,49,12.50
2016,04,20,05,50,12.50
2016,04,20,05,51,12.50
2016,04,20,05,52,12.50
2016,04,20,05,53,12.50
2016,04,20,05,54,12.40
2016,04,20,05,55,12.40
2016,04,20,05,56,12.40
2016,04,20,05,57,12.30
2016,04,20,05,58,12.30
2016,04,20,05,59,12.30
2016,04,20,06,00,12.30
2016,04,20,06,01,12.20
2016,04,20,06,02,12.20
2016,04,20,06,03,12.20
2016,04,20,06,04,12.20
2016,04,20,06,05,12.20
2016,04,20,06,06,12.10
2016,04,20,06,07,12.10
2016,04,20,06,08,12.10
2016,04,20,06,09,12.10
2016,04,20,06,10,12.00
2016,04,20,06,11,12.00
2016,04,20,06,12,12.00
2016,04,20,06,13,11.90
2016,04,20,06,14,11.90
2016,04,20,06,15,11.90
2016,04,20,06,16,11.90
2016,04,20,06,17,11.90
2016,04,20,06,18,11.90
2016,04,20,06,19,11.80
2016,04,20,06,20,11.80
2016,04,20,06,21,11.80
2016,04,20,06,22,11.80
2016,04,20,06,23,11.80
2016,04,20,06,24,11.80
2016,04,20,06,25,11.80
2016,04,20,06,26,11.80
2016,04,20,06,27,11.80
2016,04,20,06,28,11.80
2016,04,20,06,29,11.90
2016,04,20,06,30,11.90
2016,04,20,06,31,11.90
2016,04,20,06,32,12.00
2016,04,20,06,33,12.00
2016,04,20,06,34,12.10
2016,04,20,06,35,12.10
2016,04,20,06,36,12.20
2016,04,20,06,37,12.20
2016,04,20,06,38,12.30
2016,04,20,06,39,12.30
2016,04,20,06,40,12.30
2016,04,20,06,41,12.40
2016,04,20,06,42,12.40
2016,04,20,06,43,12.40
2016,04,20,06,44,12.40
2016,04,20,06,45,12.50
2016,04,20,06,46,12.50
2016,04,20,06,47,12.50
2016,04,20,06,48,12.60
2016,04,20,06,49,12.60
2016,04,20,06,50,12.60
2016,04,20,06,51,12.60
2016,04,20,06,52,12.60
2016,04,20,06,53,12.70
2016,04,20,06,54,12.70
2016,04,20,06,55,12.70
2016,04,20,06,56,12.70
2016,04,20,06,57,12.70
2016,04,20,06,58,12.70
2016,04,20,06,59,12.80
2016,04,20,07,00,12.80
2016,04,20,07,01,12.80
2016,04,20,07,02,12.80
2016,04,20,07,03,12.80
2016,04,20,07,04,12.90
2016,04,20,07,05,12.90
2016,04,20,07,06,13.00
2016,04,20,07,07,13.00
2016,04,20,07,08,13.10
2016,04,20,07,09,13.10
2016,04,20,07,10,13.10
2016,04,20,07,11,13.20
2016,04,20,07,12,13.20
2016,04,20,07,13,13.30
2016,04,20,07,14,13.30
2016,04,20,07,15,13.30
2016,04,20,07,16,13.30
2016,04,20,07,17,13.40
2016,04,20,07,18,13.40
2016,04,20,07,19,13.50
2016,04,20,07,20,13.50
2016,04,20,07,21,13.60
2016,04,20,07,22,13.60
2016,04,20,07,23,13.60
2016,04,20,07,24,13.60
2016,04,20,07,25,13.70
2016,04,20,07,26,13.70
2016,04,20,07,27,13.80
2016,04,20,07,28,13.80
2016,04,20,07,29,13.90
2016,04,20,07,30,14.10
2016,04,20,07,31,14.20
2016,04,20,07,32,14.30
2016,04,20,07,33,14.40
2016,04,20,07,34,14.60
2016,04,20,07,35,14.70
2016,04,20,07,36,14.70
2016,04,20,07,37,14.80
2016,04,20,07,38,14.90
2016,04,20,07,39,14.90
2016,04,20,07,40,15.00
2016,04,20,07,41,15.10
2016,04,20,07,42,15.10
2016,04,20,07,43,15.20
2016,04,20,07,44,15.20
2016,04,20,07,45,15.20
2016,04,20,07,46,15.10
2016,04,20,07,47,15.10
2016,04,20,07,48,15.10
2016,04,20,07,49,15.10
2016,04,20,07,50,15.20
2016,04,20,07,51,15.30
2016,04,20,07,52,15.30
2016,04,20,07,53,15.40
2016,04,20,07,54,15.60
2016,04,20,07,55,15.70
2016,04,20,07,56,15.80
2016,04,20,07,57,15.90
2016,04,20,07,58,15.90
2016,04,20,07,59,15.90
2016,04,20,08,00,16.00
2016,04,20,08,01,16.10
2016,04,20,08,02,16.10
2016,04,20,08,03,16.20
2016,04,20,08,04,16.30
2016,04,20,08,05,16.30
2016,04,20,08,06,16.30
2016,04,20,08,07,16.40
2016,04,20,08,08,16.40
2016,04,20,08,09,16.50
2016,04,20,08,10,16.60
2016,04,20,08,11,16.60
2016,04,20,08,12,16.70
2016,04,20,08,13,16.70
2016,04,20,08,14,16.70
2016,04,20,08,15,16.80
2016,04,20,08,16,16.80
2016,04,20,08,17,16.80
2016,04,20,08,18,16.90
2016,04,20,08,19,16.90
2016,04,20,08,20,16.90
2016,04,20,08,21,17.00
2016,04,20,08,22,17.10
2016,04,20,08,23,17.10
2016,04,20,08,24,17.20
2016,04,20,08,25,17.20
2016,04,20,08,26,17.30
2016,04,20,08,27,17.40
2016,04,20,08,28,17.50
2016,04,20,08,29,17.50
2016,04,20,08,30,17.60
2016,04,20,08,31,17.60
2016,04,20,08,32,17.60
2016,04,20,08,33,17.70
2016,04,20,08,34,17.70
2016,04,20,08,35,17.60
2016,04,20,08,36,17.60
2016,04,20,08,37,17.60
2016,04,20,08,38,17.60
2016,04,20,08,39,17.70
2016,04,20,08,40,17.70
2016,04,20,08,41,17.70
2016,04,20,08,42,17.70
2016,04,20,08,43,17.80
2016,04,20,08,44,17.80
2016,04,20,08,45,17.80
2016,04,20,08,46,17.80
2016,04,20,08,47,17.90
2016,04,20,08,48,17.90
2016,04,20,08,49,17.90
2016,04,20,08,50,18.00
2016,04,20,08,51,18.00
2016,04,20,08,52,18.10
2016,04,20,08,53,18.10
2016,04,20,08,54,18.10
2016,04,20,08,55,18.20
2016,04,20,08,56,18.30
2016,04,20,08,57,18.30
2016,04,20,08,58,18.30
2016,04,20,08,59,18.30
2016,04,20,09,00,18.40
2016,04,20,09,01,18.30
2016,04,20,09,02,18.30
2016,04,20,09,03,18.30
2016,04,20,09,04,18.40
2016,04,20,09,05,18.40
2016,04,20,09,06,18.50
2016,04,20,09,07,18.60
2016,04,20,09,08,18.70
2016,04,20,09,09,18.80
2016,04,20,09,10,18.90
2016,04,20,09,11,19.00
2016,04,20,09,12,19.10
2016,04,20,09,13,19.20
2016,04,20,09,14,19.30
2016,04,20,09,15,19.30
2016,04,20,09,16,19.40
2016,04,20,09,17,19.40
2016,04,20,09,18,19.40
2016,04,20,09,19,19.40
2016,04,20,09,20,19.40
2016,04,20,09,21,19.50
2016,04,20,09,22,19.50
2016,04,20,09,23,19.50
2016,04,20,09,24,19.50
2016,04,20,09,25,19.50
2016,04,20,09,26,19.60
2016,04,20,09,27,19.70
2016,04,20,09,28,19.80
2016,04,20,09,29,19.80
2016,04,20,09,30,19.90
2016,04,20,09,31,19.90
2016,04,20,09,32,20.00
2016,04,20,09,33,20.20
2016,04,20,09,34,20.30
2016,04,20,09,35,20.40
2016,04,20,09,36,20.40
2016,04,20,09,37,20.40
2016,04,20,09,38,20.40
2016,04,20,09,39,20.40
2016,04,20,09,40,20.40
2016,04,20,09,41,20.40
2016,04,20,09,42,20.40
2016,04,20,09,43,20.40
2016,04,20,09,44,20.40
2016,04,20,09,45,20.50
2016,04,20,09,46,20.60
2016,04,20,09,47,20.60
2016,04,20,09,48,20.60
2016,04,20,09,49,20.60
2016,04,20,09,50,20.60
2016,04,20,09,51,20.60
2016,04,20,09,52,20.60
2016,04,20,09,53,20.60
2016,04,20,09,54,20.60
2016,04,20,09,55,20.60
2016,04,20,09,56,20.60
2016,04,20,09,57,20.60
2016,04,20,09,58,20.70
2016,04,20,09,59,20.70
2016,04,20,10,00,20.80
2016,04,20,10,01,20.90
2016,04,20,10,02,20.90
2016,04,20,10,03,20.90
2016,04,20,10,04,20.90
2016,04,20,10,05,20.90
2016,04,20,10,06,20.90
2016,04,20,10,07,20.90
2016,04,20,10,08,20.90
2016,04,20,10,09,20.90
2016,04,20,10,10,21.00
2016,04,20,10,11,21.00
2016,04,20,10,12,21.00
2016,04,20,10,13,21.00
2016,04,20,10,14,21.00
2016,04,20,10,15,21.10
2016,04,20,10,16,21.10
2016,04,20,10,17,21.20
2016,04,20,10,18,21.30
2016,04,20,10,19,21.30
2016,04,20,10,20,21.30
2016,04,20,10,21,21.30
2016,04,20,10,22,21.30
2016,04,20,10,23,21.30
2016,04,20,10,24,21.30
2016,04,20,10,25,21.30
2016,04,20,10,26,21.30
2016,04,20,10,27,21.30
2016,04,20,10,28,21.30
2016,04,20,10,29,21.30
2016,04,20,10,30,21.20
2016,04,20,10,31,21.10
2016,04,20,10,32,21.10
2016,04,20,10,33,21.10
2016,04,20,10,34,21.20
2016,04,20,10,35,21.30
2016,04,20,10,36,21.40
2016,04,20,10,37,21.50
2016,04,20,10,38,21.50
2016,04,20,10,39,21.60
2016,04,20,10,40,21.50
2016,04,20,10,41,21.60
2016,04,20,10,42,21.70
2016,04,20,10,43,21.80
2016,04,20,10,44,21.80
2016,04,20,10,45,21.70
2016,04,20,10,46,21.70
2016,04,20,10,47,21.60
2016,04,20,10,48,21.60
2016,04,20,10,49,21.70
2016,04,20,10,50,21.70
2016,04,20,10,51,21.80
2016,04,20,10,52,21.90
2016,04,20,10,53,22.00
2016,04,20,10,54,22.00
2016,04,20,10,55,22.00
2016,04,20,10,56,22.00
2016,04,20,10,57,22.10
2016,04,20,10,58,22.10
2016,04,20,10,59,22.10
2016,04,20,11,00,22.20
2016,04,20,11,01,22.20
2016,04,20,11,02,22.20
2016,04,20,11,03,22.30
2016,04,20,11,04,22.40
2016,04,20,11,05,22.50
2016,04,20,11,06,22.60
2016,04,20,11,07,22.70
2016,04,20,11,08,22.80
2016,04,20,11,09,22.80
2016,04,20,11,10,22.80
2016,04,20,11,11,22.80
2016,04,20,11,12,22.90
2016,04,20,11,13,23.00
2016,04,20,11,14,23.00
2016,04,20,11,15,23.10
2016,04,20,11,16,23.10
2016,04,20,11,17,23.20
2016,04,20,11,18,23.30
2016,04,20,11,19,23.30
2016,04,20,11,20,23.30
2016,04,20,11,21,23.30
2016,04,20,11,22,23.30
2016,04,20,11,23,23.40
2016,04,20,11,24,23.40
2016,04,20,11,25,23.40
2016,04,20,11,26,23.40
2016,04,20,11,27,23.40
2016,04,20,11,28,23.40
2016,04,20,11,29,23.40
2016,04,20,11,30,23.40
2016,04,20,11,31,23.30
2016,04,20,11,32,23.30
2016,04,20,11,33,23.30
2016,04,20,11,34,23.30
2016,04,20,11,35,23.40
2016,04,20,11,36,23.40
2016,04,20,11,37,23.40
2016,04,20,11,38,23.40
2016,04,20,11,39,23.30
2016,04,20,11,40,23.30
2016,04,20,11,41,23.40
2016,04,20,11,42,23.30
2016,04,20,11,43,23.30
2016,04,20,11,44,23.40
2016,04,20,11,45,23.50
2016,04,20,11,46,23.50
2016,04,20,11,47,23.60
2016,04,20,11,48,23.60
2016,04,20,11,49,23.40
2016,04,20,11,50,23.00
2016,04,20,11,51,22.80
2016,04,20,11,52,22.60
2016,04,20,11,53,22.50
2016,04,20,11,54,22.50
2016,04,20,11,55,22.30
2016,04,20,11,56,22.30
2016,04,20,11,57,22.20
2016,04,20,11,58,22.10
2016,04,20,11,59,22.00
2016,04,20,12,00,22.00
2016,04,20,12,01,22.10
2016,04,20,12,02,22.10
2016,04,20,12,03,22.20
2016,04,20,12,04,22.20
2016,04,20,12,05,22.20
2016,04,20,12,06,22.30
2016,04,20,12,07,22.30
2016,04,20,12,08,22.30
2016,04,20,12,09,22.30
2016,04,20,12,10,22.30
2016,04,20,12,11,22.20
2016,04,20,12,12,22.20
2016,04,20,12,13,22.10
2016,04,20,12,14,22.10
2016,04,20,12,15,22.10
2016,04,20,12,16,22.10
2016,04,20,12,17,22.20
2016,04,20,12,18,22.30
2016,04,20,12,19,22.30
2016,04,20,12,20,22.30
2016,04,20,12,21,22.30
2016,04,20,12,22,22.40
2016,04,20,12,23,22.50
2016,04,20,12,24,22.50
2016,04,20,12,25,22.40
2016,04,20,12,26,22.30
2016,04,20,12,27,22.30
2016,04,20,12,28,22.30
2016,04,20,12,29,22.30
2016,04,20,12,30,22.30
2016,04,20,12,31,22.30
2016,04,20,12,32,22.20
2016,04,20,12,33,22.20
2016,04,20,12,34,22.20
2016,04,20,12,35,22.20
2016,04,20,12,36,22.30
2016,04,20,12,37,22.30
2016,04,20,12,38,22.40
2016,04,20,12,39,22.40
2016,04,20,12,40,22.50
2016,04,20,12,41,22.60
2016,04,20,12,42,22.60
2016,04,20,12,43,22.60
2016,04,20,12,44,22.60
2016,04,20,12,45,22.60
2016,04,20,12,46,22.60
2016,04,20,12,47,22.60
2016,04,20,12,48,22.60
2016,04,20,12,49,22.70
2016,04,20,12,50,22.70
2016,04,20,12,51,22.70
2016,04,20,12,52,22.60
2016,04,20,12,53,22.60
2016,04,20,12,54,22.50
2016,04,20,12,55,22.50
2016,04,20,12,56,22.50
2016,04,20,12,57,22.50
2016,04,20,12,58,22.60
2016,04,20,12,59,22.60
2016,04,20,13,00,22.60
2016,04,20,13,01,22.60
2016,04,20,13,02,22.60
2016,04,20,13,03,22.50
2016,04,20,13,04,22.50
2016,04,20,13,05,22.50
2016,04,20,13,06,22.50
2016,04,20,13,07,22.50
2016,04,20,13,08,22.60
2016,04,20,13,09,22.80
2016,04,20,13,10,22.90
2016,04,20,13,11,23.00
2016,04,20,13,12,23.00
2016,04,20,13,13,23.00
2016,04,20,13,14,23.00
2016,04,20,13,15,22.90
2016,04,20,13,16,22.90
2016,04,20,13,17,22.90
2016,04,20,13,18,22.90
2016,04,20,13,19,22.90
2016,04,20,13,20,22.80
2016,04,20,13,21,22.70
2016,04,20,13,22,22.70
2016,04,20,13,23,22.60
2016,04,20,13,24,22.60
2016,04,20,13,25,22.70
2016,04,20,13,26,22.80
2016,04,20,13,27,22.80
2016,04,20,13,28,22.90
2016,04,20,13,29,23.00
2016,04,20,13,30,23.00
2016,04,20,13,31,23.10
2016,04,20,13,32,23.10
2016,04,20,13,33,23.20
2016,04,20,13,34,23.20
2016,04,20,13,35,23.20
2016,04,20,13,36,23.30
2016,04,20,13,37,23.40
2016,04,20,13,38,23.50
2016,04,20,13,39,23.50
2016,04,20,13,40,23.50
2016,04,20,13,41,23.40
2016,04,20,13,42,23.40
2016,04,20,13,43,23.40
2016,04,20,13,44,23.40
2016,04,20,13,45,23.30
2016,04,20,13,46,23.30
2016,04,20,13,47,23.30
2016,04,20,13,48,23.30
2016,04,20,13,49,23.20
2016,04,20,13,50,23.20
2016,04,20,13,51,23.20
2016,04,20,13,52,23.20
2016,04,20,13,53,23.30
2016,04,20,13,54,23.30
2016,04,20,13,55,23.30
2016,04,20,13,56,23.30
2016,04,20,13,57,23.30
2016,04,20,13,58,23.20
2016,04,20,13,59,23.20
2016,04,20,14,00,23.10
2016,04,20,14,01,23.10
2016,04,20,14,02,23.10
2016,04,20,14,03,23.10
2016,04,20,14,04,23.10
2016,04,20,14,05,23.10
2016,04,20,14,06,23.10
2016,04,20,14,07,23.20
2016,04,20,14,08,23.20
2016,04,20,14,09,23.20
2016,04,20,14,10,23.20
2016,04,20,14,11,23.20
2016,04,20,14,12,23.20
2016,04,20,14,13,23.20
2016,04,20,14,14,23.10
2016,04,20,14,15,23.10
2016,04,20,14,16,23.10
2016,04,20,14,17,23.10
2016,04,20,14,18,23.20
2016,04,20,14,19,23.20
2016,04,20,14,20,23.20
2016,04,20,14,21,23.20
2016,04,20,14,22,23.30
2016,04,20,14,23,23.30
2016,04,20,14,24,23.40
2016,04,20,14,25,23.50
2016,04,20,14,26,23.60
2016,04,20,14,27,23.70
2016,04,20,14,28,23.70
2016,04,20,14,29,23.80
2016,04,20,14,30,23.80
2016,04,20,14,31,23.70
2016,04,20,14,32,23.60
2016,04,20,14,33,23.60
2016,04,20,14,34,23.60
2016,04,20,14,35,23.60
2016,04,20,14,36,23.70
2016,04,20,14,37,23.80
2016,04,20,14,38,23.80
2016,04,20,14,39,23.90
2016,04,20,14,40,23.90
2016,04,20,14,41,24.00
2016,04,20,14,42,24.10
2016,04,20,14,43,24.10
2016,04,20,14,44,24.20
2016,04,20,14,45,24.10
2016,04,20,14,46,24.00
2016,04,20,14,47,23.90
2016,04,20,14,48,23.90
2016,04,20,14,49,23.90
2016,04,20,14,50,23.90
2016,04,20,14,51,23.90
2016,04,20,14,52,23.90
2016,04,20,14,53,23.90
2016,04,20,14,54,23.90
2016,04,20,14,55,23.90
2016,04,20,14,56,23.90
2016,04,20,14,57,24.00
2016,04,20,14,58,24.00
2016,04,20,14,59,24.10
2016,04,20,15,00,24.00
2016,04,20,15,01,24.00
2016,04,20,15,02,24.10
2016,04,20,15,03,24.20
2016,04,20,15,04,24.30
2016,04,20,15,05,24.40
2016,04,20,15,06,24.30
2016,04,20,15,07,24.30
2016,04,20,15,08,24.20
2016,04,20,15,09,24.20
2016,04,20,15,10,24.10
2016,04,20,15,11,24.10
2016,04,20,15,12,24.00
2016,04,20,15,13,24.00
2016,04,20,15,14,24.10
2016,04,20,15,15,24.10
2016,04,20,15,16,24.30
2016,04,20,15,17,24.40
2016,04,20,15,18,24.50
2016,04,20,15,19,24.60
2016,04,20,15,20,24.60
2016,04,20,15,21,24.70
2016,04,20,15,22,24.70
2016,04,20,15,23,24.70
2016,04,20,15,24,24.70
2016,04,20,15,25,24.70
2016,04,20,15,26,24.70
2016,04,20,15,27,24.70
2016,04,20,15,28,24.80
2016,04,20,15,29,24.80
2016,04,20,15,30,24.90
2016,04,20,15,31,24.90
2016,04,20,15,32,25.10
2016,04,20,15,33,25.20
2016,04,20,15,34,25.20
2016,04,20,15,35,25.30
2016,04,20,15,36,25.50
2016,04,20,15,37,25.60
2016,04,20,15,38,25.70
2016,04,20,15,39,25.80
2016,04,20,15,40,25.70
2016,04,20,15,41,25.60
2016,04,20,15,42,25.50
2016,04,20,15,43,25.30
2016,04,20,15,44,25.30
2016,04,20,15,45,25.20
2016,04,20,15,46,25.20
2016,04,20,15,47,25.20
2016,04,20,15,48,25.20
2016,04,20,15,49,25.20
2016,04,20,15,50,25.20
2016,04,20,15,51,25.20
2016,04,20,15,52,25.30
2016,04,20,15,53,25.30
2016,04,20,15,54,25.30
2016,04,20,15,55,25.30
2016,04,20,15,56,25.20
2016,04,20,15,57,25.10
2016,04,20,15,58,25.00
2016,04,20,15,59,24.90
2016,04,20,16,00,24.80
2016,04,20,16,01,24.60
2016,04,20,16,02,24.60
2016,04,20,16,03,24.50
2016,04,20,16,04,24.40
2016,04,20,16,05,24.40
2016,04,20,16,06,24.40
2016,04,20,16,07,24.50
2016,04,20,16,08,24.60
2016,04,20,16,09,24.70
2016,04,20,16,10,24.80
2016,04,20,16,11,24.90
2016,04,20,16,12,24.90
2016,04,20,16,13,24.90
2016,04,20,16,14,25.00
2016,04,20,16,15,25.00
2016,04,20,16,16,25.10
2016,04,20,16,17,25.20
2016,04,20,16,18,25.20
2016,04,20,16,19,25.30
2016,04,20,16,20,25.30
2016,04,20,16,21,25.40
2016,04,20,16,22,25.50
2016,04,20,16,23,25.50
2016,04,20,16,24,25.60
2016,04,20,16,25,25.70
2016,04,20,16,26,25.70
2016,04,20,16,27,25.80
2016,04,20,16,28,25.70
2016,04,20,16,29,25.60
2016,04,20,16,30,25.50
2016,04,20,16,31,25.50
2016,04,20,16,32,25.40
2016,04,20,16,33,25.50
2016,04,20,16,34,25.50
2016,04,20,16,35,25.40
2016,04,20,16,36,25.40
2016,04,20,16,37,25.40
2016,04,20,16,38,25.40
2016,04,20,16,39,25.40
2016,04,20,16,40,25.40
2016,04,20,16,41,25.40
2016,04,20,16,42,25.40
2016,04,20,16,43,25.40
2016,04,20,16,44,25.40
2016,04,20,16,45,25.50
2016,04,20,16,46,25.50
2016,04,20,16,47,25.50
2016,04,20,16,48,25.50
2016,04,20,16,49,25.50
2016,04,20,16,50,25.40
2016,04,20,16,51,25.40
2016,04,20,16,52,25.30
2016,04,20,16,53,25.20
2016,04,20,16,54,25.10
2016,04,20,16,55,25.10
2016,04,20,16,56,25.10
2016,04,20,16,57,25.10
2016,04,20,16,58,25.10
2016,04,20,16,59,25.10
2016,04,20,17,00,25.10
2016,04,20,17,01,25.10
2016,04,20,17,02,25.10
2016,04,20,17,03,25.00
2016,04,20,17,04,25.00
2016,04,20,17,05,24.90
2016,04,20,17,06,25.00
2016,04,20,17,07,25.00
2016,04,20,17,08,25.10
2016,04,20,17,09,25.10
2016,04,20,17,10,25.10
2016,04,20,17,11,25.20
2016,04,20,17,12,25.20
2016,04,20,17,13,25.20
2016,04,20,17,14,25.20
2016,04,20,17,15,25.20
2016,04,20,17,16,25.20
2016,04,20,17,17,25.20
2016,04,20,17,18,25.20
2016,04,20,17,19,25.20
2016,04,20,17,20,25.10
2016,04,20,17,21,25.10
2016,04,20,17,22,25.00